Weather History for KP92 - December, 2012

Change the Weather History Date:

Sunday, December 30, 2012

  Actual Average Record
Temperature  
Mean Temperature 44 °F -  
Max Temperature 52 °F - - ()
Min Temperature 35 °F - - ()
Degree Days  
Heating Degree Days 22    
Moisture  
Dew Point 31 °F    
Average Humidity 64    
Maximum Humidity 76    
Minimum Humidity 43    
Precipitation  
Precipitation 0.00 in - - ()
Sea Level Pressure  
Sea Level Pressure 30.41 in    
Wind  
Wind Speed 2 mph (ESE)    
Max Wind Speed 8 mph    
Max Gust Speed -    
T = Trace of Precipitation, MM = Missing Value Source: NWS Daily Summary

Daily Weather History Graph

Daily Weather History Graph

Search for Another Location

Airport or City:

Trip Planner

Search our weather history database for the weather conditions in past years. The results will help you decide how hot, cold, wet, or windy it might be!

Date:

Astronomy

Dec. 30, 2012 Rise Set
Actual Time 7:00 AM CST 5:17 PM CST
Civil Twilight 6:34 AM CST 5:43 PM CST
Nautical Twilight 6:04 AM CST 6:13 PM CST
Astronomical Twilight 5:35 AM CST 6:42 PM CST
Moon 7:37 PM CST (12/30) 8:19 AM CST (12/30)
Length of Visible Light 11h 09m
Length of Day
10h 16m
Waning Gibbous, 95% of the Moon is Illuminated
Dec 30
Waning Gibbous
Jan 4
Last Quarter
Jan 11
New
Jan 18
First Quarter
Jan 26
Full

Hourly Weather History & Observations

Time (CST) Temp. Windchill Dew Point Humidity Pressure Visibility Wind Dir Wind Speed Gust Speed Precip Events Conditions
12:53 AM 39.9 °F - 30.0 °F 68% 30.42 in - Calm Calm - N/A   Unknown
1:53 AM 39.0 °F - 30.0 °F 70% 30.42 in - Calm Calm - N/A   Unknown
2:53 AM 37.9 °F 35.5 °F 28.0 °F 68% 30.42 in - Variable 3.5 mph - N/A   Unknown
3:53 AM 37.0 °F 33.3 °F 28.0 °F 70% 30.43 in - North 4.6 mph - N/A   Unknown
4:53 AM 37.0 °F 34.5 °F 27.0 °F 67% 30.42 in - Variable 3.5 mph - N/A   Unknown
5:53 AM 36.0 °F - 28.0 °F 73% 30.44 in - Calm Calm - N/A   Unknown
6:53 AM 35.1 °F - 28.0 °F 76% 30.46 in - Calm Calm - N/A   Unknown
7:53 AM 36.0 °F - 28.9 °F 76% 30.48 in - Calm Calm - N/A   Unknown
8:53 AM 39.9 °F 35.1 °F 28.9 °F 65% 30.48 in - Variable 6.9 mph - N/A   Unknown
9:53 AM 43.0 °F 38.8 °F 27.0 °F 53% 30.50 in - Variable 6.9 mph - N/A   Unknown
10:53 AM 46.0 °F 43.9 °F 28.0 °F 50% 30.48 in - Variable 4.6 mph - N/A   Unknown
11:53 AM 48.9 °F - 28.9 °F 46% 30.44 in - Variable 5.8 mph - N/A   Unknown
12:53 PM 51.1 °F - 28.9 °F 43% 30.41 in - ENE 5.8 mph - N/A   Unknown
1:53 PM 52.0 °F - 30.0 °F 43% 30.38 in - SSE 8.1 mph - N/A   Unknown
2:53 PM 50.0 °F - 33.1 °F 52% 30.39 in - SSE 6.9 mph - N/A   Unknown
3:53 PM 50.0 °F - 35.1 °F 57% 30.40 in - Variable 3.5 mph - N/A   Unknown
4:53 PM 48.0 °F - 36.0 °F 63% 30.39 in - Calm Calm - N/A   Unknown
5:53 PM 46.9 °F - 36.0 °F 66% 30.39 in - Calm Calm - N/A   Unknown
6:53 PM 45.0 °F - 37.0 °F 74% 30.38 in - Calm Calm - N/A   Unknown
7:53 PM 44.1 °F - 37.0 °F 76% 30.37 in - Calm Calm - N/A   Unknown
8:53 PM 44.1 °F 42.5 °F 36.0 °F 73% 30.35 in - Variable 3.5 mph - N/A   Unknown
9:53 PM 44.1 °F 42.5 °F 37.0 °F 76% 30.34 in - Variable 3.5 mph - N/A   Unknown
10:53 PM 45.0 °F 43.5 °F 34.0 °F 65% 30.32 in - Variable 3.5 mph - N/A   Unknown
11:53 PM 45.0 °F 42.6 °F 34.0 °F 65% 30.30 in - Variable 4.6 mph - N/A   Unknown